STARLINK-1644 (46532 NORAD) Tracking and Keplerian Element Data

This shows tracking and keplerian element data for the satellite.

Feedback or suggestion? Click here.




ElementValue
Catalog46532
NameSTARLINK-1644
Epoch Orbit174
Epoch Day335.91670139
Epoch Year2020
RAAN177.2509
Inclination53.0012
Eccentricity0.0001734
Argument of Perigee75.4744
Mean Anonmoly224.7907
Mean Motion15.0557782
Decay Rate0.0001042
L11 46532U 20070A 20335.91670139 .00010420 00000-0 73329-3 0 9992
L22 46532 53.0012 177.2509 0001734 75.4744 224.7907 15.05577820 1743

Live tracking and technical data element details for STARLINK-1644 (NORAD 46532). STARLINK-1644 can be tracked NOW for your location showing map with azimuth and elevation plus other details from your city location.

Track the satellite on the map from your city or location and see movement details for azimuth, elevation, latitude, longitude, range, height, and movement on the map or in text.







IsCatalogInMostPopularTable: catalog: 46532, numindb: 14
Update: records affected: 1



GetName: 46532 STARLINK-1644

Hit Count: updated at: Wed, 02 Dec 2020 06:54:19 GMT